Flag for Germany Weather past 2 weeks in Waldkraiburg, Bavaria, Germany

Now
32 °F

Overcast.


Feels Like: 32 °F
Forecast: 27 / 44 °F
Wind: 1 mph from Southeast

Location: Muenchen Flughafen

Current Time: Feb 28, 2015 at 9:55:45 PM

Latest Report: Feb 28, 2015 at 9:00 PM


Visibility: 8 mi

Pressure: 30.15 "Hg

Humidity: 97%

Dew point: 31 °F

Location of WaldkraiburgLocation

Historic Weather in Waldkraiburg — Graph

°F

Waldkraiburg temperature yesterday

Maximum temperature yesterday: 46 °F (at 3:00 PM)
Minimum temperature yesterday: 21 °F (at 6:00 AM)
Average temperature yesterday: 33 °F

Past Weeks' High & Low Weather Summary

 TemperatureHumidityPressure
High47 °F (Feb 20, 4:00 PM)100% (Feb 14, 1:00 AM)30.80 "Hg (Feb 14, 1:00 AM)
Low16 °F (Feb 20, 6:00 AM)44% (Feb 27, 3:00 PM)29.50 "Hg (Feb 21, 2:00 PM)
Average32 °F90%30.09 "Hg
* Reported Feb 13 8:00 PM — Feb 28 8:00 PM, Waldkraiburg, Weather by CustomWeather, © 2015

Note: Actual official high and low records may vary slightly from our data, if they occured in-between our weather recording intervals... More about our weather records

Advertising

Waldkraiburg weather history for previous 24 hours

 ConditionsComfort  
Time TempWeatherWind HumidityBarometerVisibility
8:00 PM
Sat, Feb 28
30 °FPassing clouds.1 mph98%30.16 "Hg9 mi
7:00 PM32 °FPassing clouds.1 mph91%30.15 "Hg10 mi
6:00 PM36 °FPassing clouds.2 mph81%30.14 "Hg16 mi
5:00 PM38 °FPartly sunny.1 mph79%30.14 "Hg19 mi
4:00 PM38 °FOvercast.1 mph76%30.14 "Hg19 mi
3:00 PM38 °FOvercast.1 mph79%30.15 "Hg19 mi
2:00 PM38 °FOvercast.3 mph83%30.17 "Hg19 mi
1:00 PM37 °FOvercast.3 mph86%30.19 "Hg16 mi
12:00 PM37 °FRain. Low clouds.3 mph88%30.21 "Hg9 mi
11:00 AM36 °FLight rain. Low clouds.3 mph88%30.22 "Hg6 mi
10:00 AM35 °FLight rain. Low clouds.3 mph90%30.22 "Hg5 mi
9:00 AM35 °FLight rain. Low clouds.5 mph94%30.21 "Hg4 mi
8:00 AM34 °FLight rain. Low clouds.3 mph96%30.20 "Hg3 mi
7:00 AM34 °FLight snow. Low clouds.3 mph95%30.17 "Hg3 mi
6:00 AM34 °FLight snow. Low clouds.3 mph96%30.17 "Hg4 mi
5:00 AM34 °FLight snow. Low clouds.3 mph96%30.16 "Hg3 mi
4:00 AM34 °FLight snow. Overcast.3 mph97%30.16 "Hg3 mi
3:00 AM34 °FLight snow. Low clouds.5 mph96%30.15 "Hg4 mi
2:00 AM34 °FLight snow. Low clouds.3 mph96%30.15 "Hg3 mi
1:00 AM34 °FLight snow. Low clouds.5 mph96%30.14 "Hg3 mi
12:00 AM34 °FLight snow. Low clouds.5 mph96%30.13 "Hg3 mi
11:00 PM
Fri, Feb 27
35 °FLight rain. Low clouds.5 mph95%30.11 "Hg3 mi
10:00 PM35 °FLight rain. Low clouds.5 mph95%30.09 "Hg3 mi
9:00 PM34 °FLight rain. Low clouds.6 mph96%30.07 "Hg4 mi
Weather by CustomWeather, © 2015

See weather overviewHow to use our weather pages